Location: Sungai Bunut
(2.6333°N, 113.7333°E)
Time: 18:26:37
(UTC+00:00)

BLOCK DM-SL R/B - Pass Details

Date: 16 October 2021
Orbit: 650 x 35766 km, 5.5° (Epoch: 07 December)

Event Time Altitude Azimuth Distance (km) Brightness Sun altitude
Exits shadow 20:44:29 41° 244° (WSW) 1,146 3.5 -21.6°
Maximum altitude 20:45:56 63° 181° (S) 1,030 3.6 -21.3°
Drops below altitude 10° 20:56:32 10° 101° (E) 5,531 8.7 -18.7°
Sets 21:06:06 0° 98° (E) 9,463 10.4 -16.3°
